Regional Weather Roundup
Issued by NWS

Home | Current Version | Previous Version | Graphics & Text | Print | Product List | Glossary Off
Versions: 1 2 3 4 5 6 7 8 9 10 11 12 13 14 15 16 17 18 19 20 21 22 23 24 25 26 27 28 29 30 31 32 33 34 35 36 37 38 39 40 41 42 43 44 45 46 47 48 49 50

167
ASUS43 KMKX 260021
RWRWI

WISCONSIN REGIONAL WEATHER ROUNDUP
NATIONAL WEATHER SERVICE MILWAUKEE/SULLIVAN WI
700 PM CDT SUN SEP 25 2016

NOTE: "FAIR" INDICATES FEW OR NO CLOUDS BELOW 12,000 FEET WITH NO
SIGNIFICANT WEATHER AND/OR OBSTRUCTIONS TO VISIBILITY.

WIZ001-002-006>008-014>016-023>028-260100-
NORTHWEST WISCONSIN

CITY           SKY/WX    TMP DP  RH WIND       PRES   REMARKS
SUPERIOR ARPT  CLOUDY    60  53  79 W9G16     29.79R
6HR MIN TEMP:  60; 6HR MAX TEMP:  72;

ASHLAND        CLOUDY    61  53  75 S10       29.81R
6HR MIN TEMP:  61; 6HR MAX TEMP:  72;

HAYWARD        CLOUDY    57  54  89 SW9       29.84S
6HR MIN TEMP:  57; 6HR MAX TEMP:  68; 6HR PCP: TRACE;

SIREN          CLOUDY    58  54  85 W10G18    29.87R
6HR MIN TEMP:  58; 6HR MAX TEMP:  67; 6HR PCP:  0.01;

CUMBERLAND     CLOUDY    55  54  94 W10       29.88R
RICE LAKE      CLOUDY    58  54  86 SW8       29.89R
6HR MIN TEMP:  58; 6HR MAX TEMP:  71;

CHETEK         NOT AVBL
LADYSMITH      CLOUDY    61  53  74 SW6       29.88S
6HR MIN TEMP:  61; 6HR MAX TEMP:  69;

EAU CLAIRE     LGT RAIN  61  53  75 W16G24    29.89R
6HR MIN TEMP:  61; 6HR MAX TEMP:  69; 6HR PCP: TRACE;

MENOMONIE      CLOUDY    61  54  78 W12       29.91R
6HR MIN TEMP:  61; 6HR MAX TEMP:  68;

NEW RICHMOND   CLOUDY    56  54  94 W12       29.91R
6HR MIN TEMP:  56; 6HR MAX TEMP:  67; 6HR PCP:  0.01;

OSCEOLA        CLOUDY    58  52  80 W12G18    29.94R
6HR MIN TEMP:  58; 6HR MAX TEMP:  68; 6HR PCP:  0.02;

$$

WIZ003>005-009-010-017-018-260100-
NORTH CENTRAL WISCONSIN

CITY           SKY/WX    TMP DP  RH WIND       PRES   REMARKS
MANITOWISH WTR NOT AVBL
ARBOR VITAE    CLOUDY    62  54  74 W9G22     29.84R
6HR MIN TEMP:  62; 6HR MAX TEMP:  69;

WOODRUFF       CLOUDY    62  54  74 W9G22     29.84R
6HR MIN TEMP:  62; 6HR MAX TEMP:  69;

RHINELANDER    CLOUDY    63  55  75 W8        29.86R
6HR MIN TEMP:  63; 6HR MAX TEMP:  68; 6HR PCP: TRACE;

EAGLE RIVER    CLOUDY    63  59  87 SW7       29.83R
6HR MIN TEMP:  63; 6HR MAX TEMP:  66;

LAND O LAKES   CLOUDY    64  57  78 SW7G16    29.84R
6HR MIN TEMP:  63; 6HR MAX TEMP:  66; 6HR PCP:  0.01;

PHILLIPS       CLOUDY    60  52  74 W12G17    29.86R
6HR MIN TEMP:  60; 6HR MAX TEMP:  69; 6HR PCP:  0.01;

TOMAHAWK       CLOUDY    61  54  76 CALM      29.86R
6HR MIN TEMP:  61; 6HR MAX TEMP:  69;

MEDFORD        MOCLDY    61  55  79 W10G16    29.88R
MERRILL        CLOUDY    63  56  80 W7        29.87R
6HR MIN TEMP:  63; 6HR MAX TEMP:  69;

$$

WIZ029-030-035-036-043>047-260100-
CENTRAL WISCONSIN

CITY           SKY/WX    TMP DP  RH WIND       PRES   REMARKS
WAUSAU         CLOUDY    64  54  69 W12       29.86R
6HR MIN TEMP:  64; 6HR MAX TEMP:  69; 6HR PCP:  0.06;

MOSINEE        CLEAR     63  55  77 W12       29.88R
MARSHFIELD     CLOUDY    63  54  72 W8        29.88R
6HR MIN TEMP:  63; 6HR MAX TEMP:  74; 6HR PCP: TRACE;

STEVENS POINT  CLOUDY    64  57  78 W8G21     29.88R
6HR MIN TEMP:  64; 6HR MAX TEMP:  71; 6HR PCP:  0.16;

WAUPACA        CLOUDY    73  70  93 SW7       29.85R
6HR MIN TEMP:  72; 6HR MAX TEMP:  77;

WAUTOMA        CLOUDY    71  63  75 W18G25    29.88R
6HR MIN TEMP:  71; 6HR MAX TEMP:  77; 6HR PCP: TRACE;

WISC RAPIDS    PTCLDY    65  55  70 W12       29.90R
6HR MIN TEMP:  65; 6HR MAX TEMP:  74; 6HR PCP:  0.05;

CAMP DOUGLAS   CLOUDY    64  55  71 SW10      29.91R
6HR MIN TEMP:  64; 6HR MAX TEMP:  74; 6HR PCP:  0.02;

$$

WIZ011>013-019>022-031-037>040-048>050-260100-
NORTHEAST WISCONSIN

CITY           SKY/WX    TMP DP  RH WIND       PRES   REMARKS
ANTIGO         MOCLDY    65  62  88 W14G23    29.85R
6HR MIN TEMP:  64; 6HR MAX TEMP:  67; 6HR PCP:  0.16;

SHAWANO        PTCLDY    72  69  92 CALM      29.83S
6HR MIN TEMP:  72; 6HR MAX TEMP:  77; 6HR PCP:  0.42;

OCONTO         NOT AVBL
STURGEON BAY   CLOUDY    66  64  93 S14       29.85F
6HR MIN TEMP:  65; 6HR MAX TEMP:  69;

GREEN BAY      PTCLDY    67  67 100 S8        29.84S
6HR MIN TEMP:  67; 6HR MAX TEMP:  76; 6HR PCP:  0.15;

MANITOWOC      RAIN      67  65  93 S15G21    29.86R FOG
6HR MIN TEMP:  66; 6HR MAX TEMP:  70;

APPLETON       DRIZZLE   70  70 100 S6        29.83S FOG
CLINTONVILLE   NOT AVBL
OSHKOSH        LGT RAIN  73  67  81 VRB7      29.85S
6HR MIN TEMP:  70; 6HR MAX TEMP:  80; 6HR PCP:  0.07;

$$

WIZ032>034-041-042-053>061-260100-
SOUTHWEST WISCONSIN

CITY           SKY/WX    TMP DP  RH WIND       PRES   REMARKS
LA CROSSE      CLOUDY    67  53  61 W13       29.92R
6HR MIN TEMP:  67; 6HR MAX TEMP:  78; 6HR PCP: TRACE;

SPARTA         CLOUDY    64  55  73 CALM      29.92S
6HR MIN TEMP:  64; 6HR MAX TEMP:  74;

VIROQUA        MOCLDY    62  53  73 SW9       29.95R
6HR MIN TEMP:  62; 6HR MAX TEMP:  74; 6HR PCP:  0.01;

BOSCOBEL       CLOUDY    66  53  63 SW8       29.96R
6HR MIN TEMP:  66; 6HR MAX TEMP:  78;

PRAIRIE DU CHI CLOUDY    65  51  59 W7        29.96S
6HR MIN TEMP:  65; 6HR MAX TEMP:  75;

PLATTEVILLE    CLOUDY    65  56  72 W9        29.98R
6HR MIN TEMP:  65; 6HR MAX TEMP:  81;

$$

WIZ056-057-062-063-064-067-068-260100-
SOUTH CENTRAL WISCONSIN

CITY           SKY/WX    TMP DP  RH WIND       PRES   REMARKS
REEDSBURG      NOT AVBL
BARABOO/DELLS  CLOUDY    67  54  62 W10G21    29.92R
6HR MIN TEMP:  67; 6HR MAX TEMP:  75; 6HR PCP:  0.01;

LONE ROCK      CLOUDY    67  53  61 W17       29.95R
6HR MIN TEMP:  67; 6HR MAX TEMP:  77; 6HR PCP: TRACE;

MINERAL POINT  CLOUDY    64  54  68 W15G25    29.97R
MADISON        CLOUDY    71  63  75 W9G16     29.89R
6HR MIN TEMP:  71; 6HR MAX TEMP:  78; 6HR PCP:  0.25;

MIDDLETON      CLOUDY    70  59  67 W22G28    29.91R
6HR MIN TEMP:  70; 6HR MAX TEMP:  79; 6HR PCP:  0.05;

WATERTOWN      CLOUDY    72  71  95 W3        29.88R
6HR MIN TEMP:  72; 6HR MAX TEMP:  81; 6HR PCP:  0.15;

MONROE         CLOUDY    68  55  64 W25G36    29.94R
JANESVILLE     MOCLDY    75  66  73 W9        29.89R
$$

WIZ051-052-058>065-066-070>072-260100-
SOUTHEAST WISCONSIN

CITY           SKY/WX    TMP DP  RH WIND       PRES   REMARKS
MILWAUKEE      MOCLDY    72  67  84 CALM      29.88S
6HR MIN TEMP:  72; 6HR MAX TEMP:  75; 6HR PCP:  0.15;

WAUKESHA       MOCLDY    70  68  94 SE6       29.90R
MILWAUKEE/TIMM MOCLDY    70  66  88 SE7       29.88S
RACINE         CLOUDY    71  66  84 S9        29.89S
6HR MIN TEMP:  71; 6HR MAX TEMP:  74; 6HR PCP:  0.01;

BURLINGTON     CLOUDY    71  69  96 E6        29.88S
6HR MIN TEMP:  71; 6HR MAX TEMP:  83; 6HR PCP:  0.57;

KENOSHA        MOCLDY    71  69  93 SE8       29.88S
6HR MIN TEMP:  71; 6HR MAX TEMP:  79; 6HR PCP:  0.40;

FOND DU LAC    CLOUDY    71  69  93 S5        29.86S
6HR MIN TEMP:  70; 6HR MAX TEMP:  82; 6HR PCP:  0.40;

SHEBOYGAN      CLOUDY    68  65  90 S3        29.88R
6HR MIN TEMP:  67; 6HR MAX TEMP:  71; 6HR PCP:  0.15;

WEST BEND      MOCLDY    68  68 100 S6        29.88S
JUNEAU         CLOUDY    72  67  85 W6        29.89R
6HR MIN TEMP:  71; 6HR MAX TEMP:  80; 6HR PCP:  0.21;

$$

LSZ147-162-260100-
LAKE SUPERIOR

STATION/POSITION TIME  TEMP    WIND        PRES    WAVE
                       AIR SEA DIR/SP/G            HT/PER
                 (UTC) (F)     (DEG/KT/KT) (MB)    (FT/S)
W MID LAKE BUOY  2350   62 61  250/ 25/ 31 1006.0S   3/ 4
DEVILS ISLAND    0000   60     220/ 14/ 16 1008.1R
SAXON HARBOR     2340   64     210/  6/ 10 1009.1R
$$

LMZ867-665-643>646-260100-
LAKE MICHIGAN

STATION/POSITION TIME  TEMP    WIND        PRES    WAVE
                       AIR SEA DIR/SP/G            HT/PER
                 (UTC) (F)     (DEG/KT/KT) (MB)    (FT/S)
CHAMBERS ISLAND  2300   65     160/  7/ 19 1010.8R
N MID LAKE BUOY  2350   68 68  160/ 17/ 21 1009.7F   3/ 5
NORTHPORT PIER   2300   67     190/  3/ 10 1011.2R
KEWAUNEE LAKESHO 2300   67     190/ 13/ 19 1010.6F
SHEBOYGAN LAKESH 0000   68     190/ 1C1F1C2F2C3F3C4F4C5F5C6F6C7F7C8M1C9M2Ca!



USA.gov is the U.S. government's official web portal to all federal, state and local government web resources and services.